Lapse_Rate
6.0 5.8 5.7 5.3 5.5 5.6 5.1 5.2 5.4 5.6 5.7 5.6 5.3 5.4 5.7 5.9 5.9 5.8 5.7 5.4 5.2 5.0 5.2 5.1 5.4 5.4 5.5 5.4 5.5 5.4 5.4 5.7 5.6
5.9 5.8 5.6 4.9 5.4 5.6 5.6 5.3 5.4 5.5 5.6 5.6 5.5 5.3 5.4 5.7 5.8 5.8 5.8 5.6 5.4 5.4 5.6 5.2 5.0 5.4 5.6 5.4 5.7 5.7 5.5 5.7 5.7
6.7 6.2 6.0 5.8 5.3 5.3 5.5 5.1 5.4 5.3 5.6 5.5 5.5 5.5 5.5 5.6 5.7 5.8 5.8 5.8 5.9 5.5 5.0 5.0 5.2 5.3 5.3 5.5 5.6 5.8 5.5 5.6 5.7
6.9 6.6 6.5 6.4 5.5 5.0 5.4 5.5 5.3 5.1 5.5 5.3 5.2 5.3 5.3 5.3 5.4 5.5 5.8 5.9 5.9 6.0 5.4 5.3 5.7 5.1 5.5 5.6 5.7 5.8 5.5 5.5 5.8
6.8 6.6 6.7 6.2 5.9 5.6 5.6 5.1 5.2 5.1 5.0 5.3 5.4 5.1 4.9 5.0 5.1 5.2 5.5 5.7 5.9 6.1 6.1 5.5 5.7 5.7 5.7 5.7 5.4 5.8 5.6 5.4 5.5
6.8 6.6 6.4 6.3 5.9 6.1 4.9 5.7 5.5 5.8 5.0 4.9 4.9 5.0 5.4 5.5 5.3 5.1 5.2 5.5 5.5 5.8 6.1 6.2 5.9 5.7 5.8 5.7 5.6 5.7 5.8 5.5 5.5
6.8 6.3 6.4 6.3 5.9 5.8 5.8 5.6 5.5 5.4 5.7 5.6 5.5 5.9 6.2 5.3 5.6 5.4 5.2 5.4 5.6 5.7 5.8 6.0 6.3 6.2 6.1 6.2 6.2 6.1 6.1 5.9 5.7
6.8 6.5 6.2 6.3 6.4 6.4 6.1 5.8 5.5 5.7 5.7 5.8 5.5 5.6 5.4 5.9 6.2 5.8 5.5 5.4 5.6 5.9 5.9 6.0 6.0 6.1 6.2 6.2 6.2 6.2 6.2 6.1 5.9
7.1 6.9 6.7 6.7 6.9 6.7 6.5 6.4 5.6 5.1 5.5 5.4 5.7 6.0 6.2 5.8 5.8 6.0 6.1 6.0 6.1 5.8 5.8 5.9 5.8 5.8 6.0 6.0 6.2 6.3 6.1 5.9 5.8
7.0 6.9 6.9 6.8 6.6 6.6 6.3 6.2 5.5 5.3 6.1 6.0 5.8 5.5 5.6 5.7 5.6 6.0 6.0 6.1 6.1 6.1 6.1 6.0 5.9 5.8 5.9 5.9 6.0 6.1 6.1 5.9 5.8
6.7 6.6 6.5 6.6 6.6 6.5 6.7 6.6 6.4 6.0 5.8 5.9 5.6 5.5 5.9 5.8 5.9 6.0 6.0 6.0 6.1 6.1 6.1 6.3 6.1 6.1 6.0 6.1 6.1 6.1 5.9 5.8 5.7
6.5 6.4 6.3 6.2 6.1 6.2 6.2 6.5 6.6 6.4 6.4 7.0 6.5 6.2 6.2 6.2 6.0 6.1 6.1 6.0 6.1 6.1 6.1 6.1 6.2 6.3 6.3 6.3 6.4 6.2 6.0 5.8 5.9
5.8 5.9 6.0 6.0 6.0 6.1 6.2 6.2 6.4 6.4 6.3 6.4 6.5 6.4 6.2 6.3 6.2 5.8 5.7 5.9 6.1 6.1 6.2 6.2 6.2 6.4 6.5 6.4 6.3 6.4 6.2 6.0 5.8
5.7 5.8 6.0 6.0 5.9 5.8 6.0 6.0 6.1 6.2 6.4 6.5 6.4 6.3 6.3 6.3 6.3 6.0 5.8 5.7 5.7 5.8 6.2 6.4 6.4 6.4 6.5 6.5 6.7 6.8 6.4 6.1 6.1
5.7 5.6 5.6 5.7 5.5 5.6 5.7 5.8 5.9 5.9 5.9 6.1 6.3 6.3 6.2 6.1 6.1 6.1 6.2 6.1 5.8 5.9 5.7 5.9 6.3 6.3 6.5 6.5 6.7 6.4 6.3 6.4 6.4
5.3 5.7 5.9 5.8 5.5 5.4 5.5 5.6 5.5 5.5 5.7 5.7 5.8 5.9 6.1 6.1 6.0 6.0 6.0 6.1 6.0 5.9 5.8 5.9 5.9 6.0 6.4 6.5 6.7 6.6 6.4 6.4 6.4
5.5 5.8 6.1 5.9 5.9 5.8 5.7 5.8 5.7 5.7 5.7 5.8 5.9 5.9 5.8 5.8 5.8 5.7 5.7 5.8 5.8 5.9 5.7 5.5 5.9 6.3 6.1 5.9 6.2 6.3 6.4 6.4 6.3
6.3 5.8 5.8 5.7 5.7 5.7 5.7 5.7 5.8 5.8 5.8 5.9 6.0 6.0 6.1 6.0 5.8 5.8 5.8 5.7 5.8 5.9 5.9 5.8 5.8 5.7 5.7 6.0 6.1 5.8 5.9 6.3 6.4
6.1 6.0 5.8 5.8 5.8 5.8 5.8 5.8 5.8 5.9 6.0 6.2 6.3 6.3 6.2 6.0 5.9 5.8 5.7 5.5 5.5 5.5 5.7 5.8 5.7 5.8 5.7 5.7 5.8 6.0 5.7 5.7 6.0
6.0 6.1 6.0 6.0 6.0 5.9 5.8 5.9 5.9 5.9 6.0 6.2 6.4 6.4 6.4 6.3 6.2 5.9 5.8 5.8 5.7 5.8 5.6 5.3 5.5 5.6 5.7 5.6 5.8 5.8 5.8 5.6 5.4
Wind_Speed
18 13 8 18 21 12 12 21 19 19 17 15 14 13 11 9 7 5 4 5 3 6 4 3 10 8 9 5 12 7 6 3 3
11 11 27 21 11 19 16 17 20 18 18 16 14 13 11 10 9 9 6 6 4 3 8 5 2 9 6 7 6 8 6 4 4
12 15 13 13 12 14 18 13 19 19 19 17 16 14 12 11 11 10 8 6 4 3 7 8 8 2 8 6 7 7 6 5 5
13 10 11 9 11 16 17 8 5 16 19 18 15 14 14 13 12 11 9 7 5 4 2 12 9 10 13 7 5 6 6 5 2
14 11 11 11 10 17 10 15 15 15 4 18 15 15 13 14 12 12 12 10 9 7 6 5 5 10 8 6 7 6 7 6 5
15 13 12 13 13 13 9 10 14 13 13 12 12 9 14 12 13 12 12 12 11 9 8 7 8 7 7 7 7 6 7 8 7
15 15 14 14 13 12 8 7 12 11 10 13 15 13 17 10 11 10 10 6 10 10 9 9 9 8 8 10 9 9 8 7 6
17 17 17 16 16 14 13 13 12 11 11 13 11 13 13 13 12 2 5 6 8 7 9 9 9 9 8 7 10 9 8 7 9
15 16 17 15 15 15 13 13 8 8 5 10 10 10 11 11 11 11 12 7 5 6 5 7 8 10 9 9 9 12 13 12 9
14 14 14 15 14 13 12 12 8 6 8 8 10 10 10 9 9 9 10 9 9 8 7 7 8 9 10 11 10 12 9 9 9
12 12 13 12 11 11 11 12 10 6 6 6 6 6 8 9 9 9 8 7 8 9 9 8 8 9 9 11 9 11 13 10 6
10 10 10 9 9 10 9 9 8 7 6 8 9 8 5 4 6 7 7 8 8 6 7 8 9 9 10 10 11 11 10 8 7
8 9 8 6 7 8 9 8 9 8 8 9 9 10 9 7 8 7 5 5 6 5 4 6 6 10 10 12 11 11 11 9 7
7 6 7 3 5 6 7 8 8 7 8 9 9 9 9 10 7 7 7 5 5 6 7 6 8 8 8 9 11 13 12 12 10
4 5 5 5 4 6 6 8 8 8 8 9 9 9 8 9 10 8 7 7 6 8 8 8 7 7 7 5 6 10 9 9 9
5 7 6 7 6 6 10 9 7 7 8 8 8 9 11 10 8 9 8 6 8 8 7 6 6 5 4 4 5 5 8 6 8
6 7 7 4 5 6 7 8 9 9 9 9 10 11 10 9 12 10 9 7 8 5 7 6 7 6 6 7 6 2 2 3 4
6 4 4 3 3 3 5 7 8 9 10 11 11 11 11 11 9 11 11 8 7 6 6 6 6 6 6 7 8 6 5 5 5
4 5 3 4 2 4 5 4 6 8 10 9 10 10 10 10 10 10 9 9 10 12 11 12 11 12 10 8 10 11 11 10 10
3 4 4 4 4 5 5 7 6 6 8 10 10 9 9 9 10 9 10 9 10 11 11 14 14 16 15 13 14 12 13 14 10
Wind_Direction
175 180 222 254 187 213 194 166 165 161 170 177 183 182 195 195 223 214 225 227 187 146 158 229 186 185 166 204 181 208 157 198 225
24 9 195 201 200 201 198 174 165 166 170 178 184 189 189 195 197 227 211 219 205 193 156 138 335 331 183 188 198 200 178 230 205
39 23 43 54 34 349 195 177 171 167 169 177 184 193 190 194 200 209 228 260 201 252 120 142 163 312 300 188 190 201 186 231 222
66 52 48 53 68 28 5 337 83 190 170 175 184 192 191 195 195 201 211 226 223 217 213 154 155 166 249 222 199 202 201 236 242
79 79 65 43 77 80 23 19 17 18 330 172 184 194 194 190 187 194 195 205 212 206 202 202 218 194 216 170 224 213 203 219 238
79 80 82 70 63 71 51 33 36 8 19 24 5 219 186 192 189 191 201 193 202 203 204 202 213 211 213 204 224 225 204 207 241
94 86 80 86 84 84 89 80 75 26 2 20 19 29 7 185 191 197 202 214 196 206 198 204 210 225 215 201 219 222 212 212 226
99 95 92 86 80 75 62 56 45 43 12 22 18 34 29 21 358 302 185 211 224 219 208 207 211 219 232 231 213 227 226 237 206
88 82 79 74 78 73 69 57 64 81 39 35 22 30 31 15 19 28 26 347 279 243 243 240 219 221 229 233 243 236 217 212 228
94 88 83 82 75 76 78 80 78 68 53 50 41 36 38 21 15 24 22 11 13 342 285 260 256 242 234 237 236 246 260 227 236
93 88 83 76 77 70 59 66 51 91 115 130 93 61 29 26 33 22 10 13 13 1 351 315 282 267 254 247 245 241 238 239 237
92 90 79 66 63 84 67 51 55 18 36 63 41 44 51 49 43 15 10 2 351 350 343 344 329 292 275 266 258 247 244 235 250
101 82 74 54 56 60 61 33 39 25 31 43 27 10 2 14 5 3 357 340 331 309 303 309 308 317 298 267 260 259 238 224 238
98 88 77 53 57 58 45 31 21 24 17 26 8 352 345 342 347 328 319 344 315 314 306 297 288 295 299 295 287 279 254 231 245
112 92 70 47 53 49 36 36 22 12 22 6 353 341 330 327 323 322 326 313 314 301 285 272 275 280 285 284 317 303 308 309 260
104 78 59 37 19 41 44 33 14 3 358 344 349 339 328 321 304 299 289 301 294 280 283 284 261 277 295 330 15 32 74 38 54
116 96 75 32 34 39 38 19 10 359 345 349 347 340 331 325 320 299 287 274 283 305 303 315 339 336 342 334 335 282 23 8 350
79 84 93 86 50 19 28 17 3 356 356 359 353 340 330 321 320 337 327 319 318 309 307 301 300 301 294 295 296 293 304 320 318
111 90 90 71 58 46 32 1 16 14 1 352 348 339 337 333 327 329 319 317 310 306 278 273 269 260 247 262 254 281 285 281 275
140 95 77 62 41 42 30 22 28 13 350 1 350 341 332 329 318 313 312 315 310 307 302 288 278 267 256 246 254 281 284 280 280